SL-12 R/B(2), 20266

Orbit data source: Space-Track

SL-12 R/B(2), 20266 is space debris in GEO originally from a launch on Thu, 28 Sep 1989 UTC launched from the Tyuratam Missile And Space Complex (TTMTR). Debris objects in space refer to the collection of defunct objects orbiting the Earth. Examples of debris include non-operational satellites, rocket bodies, and fragments generated from explosions, collisions, or faulty payload assembly.

Loading next visibility...
Identifier
20266, 1989-081D
Orbit
GEO
Country
Flag of CISCIS
Related business
Manufacturer
NPO Energiya
Mission
Spacecraft
Bus & Motor
BLOK DM, Unknown motor
Mass
2,440 kg wet, 2,440 kg dry
Launch date (UTC)
1989-09-28 (36 years ago)
Launch vehicle
Unknown
Launch site
Tyuratam Missile And Space Complex (TTMTR)
Object type
Payload
Rocket body
Debris
Shape & HBR
Cyl, 3.1 m
Radar Cross Section
23.597 m², Large (>1 m²)

Expand to show TLE details & history
Last TLE update: 11 hours ago

TLE from 11 hours ago
0 SL-12 R/B(2)
1 20266U 89081D   25299.59887715 -.00000223  00000-0  00000+0 0  9996
2 20266  12.1429 334.4507 0025702 124.2454  61.2149  1.00616971117004
Epoch: 2025-10-26T14:22Z
TLE epoch observation values (Epoch: 2025-10-26T14:22:22.985Z)
Latitude
-1.20951°
Longitude
-90.7863°
Altitude
35,638.391 km
Speed
3.082 km/s
True Right ascension
10h 40m 05s
True Declination
-1° 12' 30"
Sunlit
Object was in daylight at epoch
Visualization orbit readout
Latitude
Unknown
Longitude
Unknown
Altitude
Unknown
Speed
Unknown
Apparent Right ascension
Unknown
Apparent Declination
Unknown
Sunlit
N/A
Visualization observer readout
Local Sidereal Time
20:46:55
Azimuth
Unknown
Elevation
Unknown
Doppler factor
Unknown
Orbital elements
Apogee altitude
35,799.233 km
Perigee altitude
35,582.98 km
Semi-major axis
42,069.244 km
Eccentricity
0.00257
Inclination
12.1429°
RAAN
334.4507°
Arg. of periapsis
124.2454°
True anomaly
61.47343°
Mean anomaly
61.2149°
Eccentric anomaly
61.34412°
Mean motion
0.25153 °/min
Orbital period
1,431.22 mins
BSTAR
0
Loading maneuver chart data...
Computing Atmospheric mass density...
Loading historical data...
Loading historical data...
Loading historical data...
Loading historical data...
Loading historical data...
Loading historical data...
Loading historical data...

Documentation

Showing up to 5 results
|